Fort Pierce, FL

9:38 PM EST on February 11, 2016 (GMT -0500)
Saint Lucie County International

Weather History for KFPR - December, 2012

Change the Weather History Date:

Wednesday, December 26, 2012

  Actual Average (KVRB) Record (KVRB)
Temperature  
Mean Temperature 70 °F 63 °F  
Max Temperature 82 °F 73 °F 85 °F (1981)
Min Temperature 54 °F 53 °F 24 °F (1983)
Degree Days  
Heating Degree Days 0 4  
Month to date heating degree days 81  
Since 1 July heating degree days 111  
Cooling Degree Days 4 2  
Month to date cooling degree days 82  
Year to date cooling degree days 3393  
Growing Degree Days 20 (Base 50)    
Moisture  
Dew Point 62 °F    
Average Humidity 76    
Maximum Humidity 93    
Minimum Humidity 53    
Precipitation  
Precipitation 0.00 in 0.07 in 1.45 in (1958)
Month to date precipitation 1.84  
Year to date precipitation 51.52  
Sea Level Pressure  
Sea Level Pressure 29.88 in    
Wind  
Wind Speed 9 mph (SW)    
Max Wind Speed 23 mph    
Max Gust Speed 33 mph    
Visibility 10 miles    
Events Rain    
T = Trace of Precipitation, MM = Missing Value Source: NWS Daily Summary

Daily Weather History Graph

Daily Weather History Graph

Search for Another Location

Airport or City:

Trip Planner

Search our weather history database for the weather conditions in past years. The results will help you decide how hot, cold, wet, or windy it might be!

Date:

Astronomy

Dec. 26, 2012 Rise Set
Actual Time 7:09 AM EST 5:34 PM EST
Civil Twilight 6:44 AM EST 6:00 PM EST
Nautical Twilight 6:15 AM EST 6:29 PM EST
Astronomical Twilight 5:46 AM EST 6:58 PM EST
Moon 4:24 PM EST (12/26) 5:34 AM EST (12/26)
Length of Visible Light 11h 16m
Length of Day
10h 24m
Waxing Gibbous, 97% of the Moon is Illuminated
Dec 26
Waxing Gibbous
Dec 28
Full
Jan 4
Last Quarter
Jan 11
New
Jan 18
First Quarter

Hourly Weather History & Observations

Time (EST) Temp. Heat Index Dew Point Humidity Pressure Visibility Wind Dir Wind Speed Gust Speed Precip Events Conditions
12:53 AM 66.0 °F - 60.1 °F 81% 29.92 in 10.0 mi SSE 5.8 mph - N/A   Clear
1:53 AM 66.0 °F - 60.1 °F 81% 29.93 in 10.0 mi South 3.5 mph - N/A   Clear
2:53 AM 64.9 °F - 60.1 °F 84% 29.92 in 10.0 mi SSE 4.6 mph - N/A   Clear
3:53 AM 66.0 °F - 62.1 °F 87% 29.92 in 10.0 mi South 4.6 mph - N/A   Clear
4:53 AM 66.0 °F - 62.1 °F 87% 29.92 in 10.0 mi South 5.8 mph - N/A   Partly Cloudy
5:53 AM 66.0 °F - 62.1 °F 87% 29.93 in 10.0 mi South 4.6 mph - N/A   Mostly Cloudy
6:53 AM 68.0 °F - 64.4 °F 88% 29.91 in 10.0 mi South 5.8 mph - N/A   Scattered Clouds
7:53 AM 69.1 °F - 64.9 °F 87% 29.91 in 10.0 mi South 6.9 mph - N/A   Mostly Cloudy
8:53 AM 73.0 °F - 66.0 °F 79% 29.91 in 10.0 mi South 10.4 mph - N/A   Scattered Clouds
9:53 AM 77.0 °F - 68.0 °F 74% 29.92 in 10.0 mi SSW 11.5 mph 21.9 mph N/A   Scattered Clouds
10:53 AM 78.1 °F - 66.0 °F 66% 29.90 in 10.0 mi SSW 18.4 mph 24.2 mph N/A   Overcast
11:10 AM 80.6 °F 82.7 °F 66.2 °F 61% 29.89 in 10.0 mi SSW 16.1 mph 24.2 mph N/A   Mostly Cloudy
11:53 AM 82.0 °F 84.1 °F 66.0 °F 58% 29.86 in 10.0 mi SSW 17.3 mph 28.8 mph N/A   Mostly Cloudy
12:53 PM 82.0 °F 83.8 °F 64.9 °F 56% 29.81 in 10.0 mi SSW 23.0 mph 33.4 mph N/A   Mostly Cloudy
1:53 PM 82.0 °F 83.8 °F 64.9 °F 56% 29.80 in 10.0 mi SW 23.0 mph 29.9 mph N/A   Mostly Cloudy
2:53 PM 81.0 °F 82.5 °F 64.0 °F 56% 29.79 in 10.0 mi SW 15.0 mph 25.3 mph N/A   Overcast
3:53 PM 82.9 °F 84.4 °F 64.0 °F 53% 29.80 in 10.0 mi WSW 23.0 mph 29.9 mph N/A   Mostly Cloudy
4:23 PM 71.6 °F - 62.6 °F 73% 29.83 in 10.0 mi West 16.1 mph 25.3 mph 0.00 in Rain Light Rain
4:53 PM 70.0 °F - 63.0 °F 78% 29.84 in 10.0 mi West 11.5 mph - 0.00 in   Overcast
5:53 PM 70.0 °F - 62.1 °F 76% 29.86 in 10.0 mi West 10.4 mph - N/A   Overcast
6:53 PM 66.9 °F - 62.1 °F 84% 29.89 in 10.0 mi West 8.1 mph - N/A   Partly Cloudy
7:53 PM 64.9 °F - 60.1 °F 84% - 10.0 mi West 8.1 mph - N/A   Clear
8:53 PM 64.9 °F - 57.9 °F 78% - 10.0 mi West 10.4 mph - N/A   Mostly Cloudy
9:53 PM 61.0 °F - 55.9 °F 83% - 10.0 mi West 8.1 mph - N/A   Clear
10:53 PM 57.9 °F - 54.0 °F 87% - 10.0 mi West 8.1 mph - N/A   Clear
11:53 PM 54.0 °F - 52.0 °F 93% - 10.0 mi West 5.8 mph - N/A   Clear